Location: Unspecified
(49.2170°N, 0.0000°E)
Time: 14:40:05
(UTC+00:00)

Explorer 7 - All Passes

Search period start: 25 January 2021 00:00
Search period end: 04 February 2021 00:00
Orbit: 484 x 678 km, 50.3° (Epoch: 24 January)

Date Brightness Start Highest point End Pass type
(mag) Time Alt. Az. Time Alt. Az. Time Alt. Az.
25 Jan - 04:34:09 10° SW 04:37:45 41° SSE 04:41:31 10° E visible
25 Jan - 06:14:10 10° W 06:18:05 82° N 06:22:14 10° E visible
25 Jan - 07:54:39 10° WNW 07:58:42 85° NNE 08:03:01 10° E daylight
25 Jan - 09:35:08 10° W 09:39:04 41° SSW 09:43:14 10° SE daylight
25 Jan - 11:17:49 10° WSW 11:18:50 11° SW 11:19:52 10° SSW daylight
26 Jan - 03:00:16 10° S 03:02:25 15° SE 03:04:37 10° ESE visible
26 Jan - 04:38:29 10° SW 04:42:14 57° SSE 04:46:09 10° ENE visible
26 Jan - 06:18:46 10° W 06:22:40 76° N 06:26:50 10° E visible
26 Jan - 07:59:14 10° WNW 08:03:17 82° SSW 08:07:35 10° ESE daylight
26 Jan - 09:39:51 10° W 09:43:30 29° SW 09:47:21 10° SSE daylight
27 Jan - 03:03:48 10° SSW 03:06:44 22° SE 03:09:46 10° E visible
27 Jan - 04:42:56 10° WSW 04:46:45 74° SSE 04:50:45 10° ENE visible
27 Jan - 06:23:22 10° W 06:27:17 75° N 06:31:27 10° E visible
27 Jan - 08:03:49 10° WNW 08:07:49 66° SSW 08:12:06 10° ESE daylight
27 Jan - 09:44:44 10° W 09:47:53 21° SW 09:51:11 10° S daylight
28 Jan - 03:07:45 10° SSW 03:11:07 31° SSE 03:14:34 10° E visible
28 Jan - 04:47:29 10° WSW 04:51:18 90° S 04:55:19 10° ENE visible
28 Jan - 06:27:58 10° W 06:31:54 79° N 06:36:04 10° E visible
28 Jan - 08:08:24 10° WNW 08:12:20 50° SSW 08:16:30 10° SE daylight
28 Jan - 09:49:58 10° WSW 09:52:13 14° SW 09:54:31 10° SSW daylight
29 Jan - 01:35:18 10° SE 01:35:54 10° SE 01:36:30 10° SE night (unlit)
29 Jan - 03:11:58 10° SW 03:15:33 44° SSE 03:19:16 10° E visible
29 Jan - 04:52:04 10° W 04:55:53 80° N 04:59:55 10° E visible
29 Jan - 06:32:33 10° WNW 06:36:30 88° NNE 06:40:40 10° ESE visible
29 Jan - 08:13:03 10° W 08:16:47 36° SSW 08:20:45 10° SE daylight
30 Jan - 01:37:48 10° S 01:40:10 16° SE 01:42:34 10° E night (unlit)
30 Jan - 03:16:19 10° WSW 03:20:03 61° SSE 03:23:53 10° ENE visible
30 Jan - 04:56:40 10° W 05:00:30 75° N 05:04:31 10° E visible
30 Jan - 06:37:08 10° WNW 06:41:03 78° SSW 06:45:13 10° ESE visible
30 Jan - 08:17:49 10° W 08:21:13 26° SW 08:24:46 10° SSE daylight
31 Jan - 01:41:28 10° SSW 01:44:31 24° SE 01:47:35 10° E night (unlit)
31 Jan - 03:20:48 10° WSW 03:24:34 78° SSE 03:28:28 10° ENE visible
31 Jan - 05:01:16 10° W 05:05:06 75° N 05:09:08 10° E visible
31 Jan - 06:41:42 10° WNW 06:45:35 61° SSW 06:49:41 10° ESE visible
31 Jan - 08:22:47 10° W 08:25:35 18° SW 08:28:29 10° S daylight
01 Feb - 01:45:30 10° SW 01:48:55 34° SSE 01:52:22 10° E night (unlit)
01 Feb - 03:25:21 10° WSW 03:29:08 87° NNW 03:33:03 10° ENE visible
01 Feb - 05:05:52 10° W 05:09:42 80° N 05:13:44 10° E visible
01 Feb - 06:46:19 10° W 06:50:05 45° SSW 06:54:03 10° SE visible
01 Feb - 08:28:21 10° WSW 08:29:54 12° SW 08:31:28 10° SSW daylight
02 Feb - 00:12:15 10° SSE 00:13:37 12° SE 00:14:59 10° ESE night (unlit)
02 Feb - 01:49:44 10° SW 01:53:21 48° SSE 01:57:02 10° E night (unlit)
02 Feb - 03:29:57 10° W 03:33:43 77° N 03:37:38 10° E visible
02 Feb - 05:10:27 10° WNW 05:14:17 89° SSW 05:18:20 10° ESE visible
02 Feb - 06:51:00 10° W 06:54:32 32° SSW 06:58:14 10° SSE visible
03 Feb - 00:15:20 10° S 00:17:55 18° SE 00:20:31 10° E night (unlit)
03 Feb - 01:54:08 10° WSW 01:57:50 65° SSE 02:01:38 10° ENE night (unlit)
03 Feb - 03:34:33 10° W 03:38:19 74° N 03:42:14 10° E visible
03 Feb - 05:15:01 10° WNW 05:18:51 73° SSW 05:22:52 10° ESE visible
03 Feb - 06:55:48 10° W 06:58:56 23° SW 07:02:11 10° SSE visible
